Content
SEND FEEDBACK

Daily
Averages
Monthly
Summary
United States of America

STEAMBOAT SPRINGS, COLORADO


Home > North America > United States > Colorado
Elevation: 6917 feet     Latitude: 40 30N     Longitude: 106 50W

WEATHER
 
SELECT A DAY
Number of Records: 82,750;   Date Range: 1/3/95 - 7/31/14
 
SHARE

PRINT THIS DATA

[ ← Previous Day ]
WEATHER ALMANAC - MARCH 16, 2013
[ Next Day → ]
[ °C ]   °F
Weather ElementAverageHighLow
Temperature39.8 °F50 °F (1:35 pm)31.3 °F (11:35 pm)
Dewpoint25.9 °F29.1 °F (12:55 am)19.6 °F (4:35 pm)
Humidity59.7 %82 % (7:35 am)32 % (1:35 pm)
Barometer29.95 in30.07 in (1:15 am)29.87 in (11:35 pm)
Wind Speed3.2 mph16.1 mph (1:15 am)
Wind Gust21.9 mph (1:15 am)
Weather ElementAverage
Visibility10 mi
Wind DirectionE (89.7 °)

Weather ElementTotal
Precipitation---
Heating Degree Days24.4 (Base 65)
Averaged from 70 records on March 16, 2013
WEATHER CONDITIONS BREAKOUT
WIND DIRECTION BREAKOUT
WEATHER BY HOUR - MARCH 16, 2013
[ °C ]   °F
Local TimeTemperatureDewpointHumidityBarometerVisibilityWind DirectionWind SpeedGust SpeedPrecipitationEventsConditions
12:55 AM41.9 °F29.1 °F61 %30.06 in10.0 miNE (50°)9.2 mphOvercast
1:15 AM42.6 °F28.4 °F57 %30.07 in10.0 miNorth (350°)16.1 mph21.9 mphOvercast
1:35 AM41.9 °F28.6 °F59 %30.06 in10.0 miNNE (30°)8.1 mphOvercast
1:55 AM41.2 °F28.4 °F60 %30.05 in10.0 miENE (70°)9.2 mphOvercast
2:15 AM40.8 °F28.4 °F61 %30.04 in10.0 miSE (140°)8.1 mphOvercast
2:35 AM40.5 °F28.2 °F62 %30.05 in10.0 miCalmMostly Cloudy
2:55 AM39.6 °F28.4 °F64 %30.03 in10.0 miSSW (200°)3.5 mphScattered Clouds
3:15 AM38.5 °F28.4 °F67 %30.03 in10.0 miCalmScattered Clouds
3:35 AM38.3 °F28.4 °F68 %30.03 in10.0 miCalmClear
3:55 AM36.3 °F28.4 °F73 %30.02 in10.0 miEast (90°)3.5 mphScattered Clouds
4:15 AM36.3 °F28.2 °F72 %30.01 in10.0 miCalmClear
4:35 AM36.7 °F28.4 °F72 %30.00 in10.0 miCalmClear
4:55 AM37.4 °F28.0 °F69 %30.00 in10.0 miSE (140°)3.5 mphClear
5:15 AM34.5 °F28.2 °F78 %30.00 in10.0 miCalmClear
5:35 AM34.9 °F28.2 °F77 %29.99 in10.0 miCalmClear
5:55 AM36.0 °F27.9 °F72 %29.99 in10.0 miCalmClear
6:15 AM35.6 °F27.9 °F73 %29.98 in10.0 miCalmScattered Clouds
6:35 AM34.0 °F27.5 °F77 %29.98 in10.0 miCalmMostly Cloudy
6:55 AM33.8 °F27.5 °F78 %29.98 in10.0 miCalmOvercast
7:15 AM33.8 °F27.5 °F78 %29.98 in10.0 miCalmOvercast
7:35 AM32.9 °F27.9 °F82 %29.98 in10.0 miCalmOvercast
7:55 AM33.4 °F28.0 °F81 %29.98 in10.0 miCalmOvercast
8:15 AM34.2 °F28.0 °F78 %29.97 in10.0 miCalmOvercast
8:35 AM35.1 °F28.0 °F76 %29.97 in10.0 miCalmOvercast
8:55 AM34.7 °F28.4 °F78 %29.97 in10.0 miCalmOvercast
9:15 AM35.6 °F28.4 °F75 %29.98 in10.0 miCalmOvercast
9:35 AM36.7 °F28.0 °F71 %29.98 in10.0 miCalmOvercast
9:55 AM36.3 °F28.8 °F74 %29.99 in10.0 miCalmOvercast
10:15 AM37.6 °F28.6 °F70 %29.97 in10.0 miESE (110°)6.9 mphOvercast
10:35 AM38.8 °F28.4 °F66 %29.97 in10.0 miESE (120°)5.8 mphOvercast
10:55 AM41.7 °F27.5 °F57 %29.97 in10.0 miCalmOvercast
11:15 AM41.5 °F28.9 °F61 %29.97 in10.0 miNW (310°)3.5 mphMostly Cloudy
11:35 AM42.6 °F28.0 °F56 %29.96 in10.0 miCalmOvercast
11:55 AM43.5 °F27.5 °F53 %29.96 in10.0 miCalmOvercast
12:15 PM42.4 °F28.0 °F57 %29.95 in10.0 miCalmOvercast
12:35 PM44.8 °F28.0 °F52 %29.95 in10.0 miCalmOvercast
12:55 PM46.0 °F26.2 °F46 %29.95 in10.0 miCalmOvercast
1:15 PM46.0 °F26.1 °F46 %29.95 in10.0 miWest (260°)9.2 mphOvercast
1:35 PM50.0 °F21.0 °F32 %29.94 in10.0 miWest (270°)9.2 mphMostly Cloudy
1:55 PM48.6 °F21.6 °F35 %29.93 in10.0 miWNW (290°)10.4 mphOvercast
2:15 PM47.5 °F22.6 °F38 %29.92 in10.0 miWNW (290°)9.2 mphMostly Cloudy
2:35 PM48.6 °F21.6 °F35 %29.91 in10.0 miWest (270°)6.9 mphOvercast
2:55 PM48.9 °F20.7 °F33 %29.91 in10.0 miWest (280°)10.4 mphOvercast
3:15 PM47.3 °F20.3 °F34 %29.91 in10.0 miWest (280°)10.4 mphOvercast
3:35 PM44.1 °F25.7 °F49 %29.91 in10.0 miWNW (290°)10.4 mph20.7 mphMostly Cloudy
3:55 PM47.7 °F23.7 °F39 %29.91 in10.0 miWNW (290°)11.5 mph16.1 mphOvercast
4:15 PM45.7 °F21.0 °F38 %29.91 in10.0 miWest (270°)12.7 mph19.6 mphOvercast
4:35 PM47.5 °F19.6 °F33 %29.90 in10.0 miWest (270°)6.9 mphOvercast
4:55 PM45.0 °F21.9 °F40 %29.90 in10.0 miCalmOvercast
5:15 PM46.4 °F20.7 °F36 %29.90 in10.0 miCalmScattered Clouds
5:35 PM48.0 °F20.7 °F34 %29.90 in10.0 miCalmScattered Clouds
5:55 PM45.5 °F22.6 °F41 %29.91 in10.0 miWest (260°)8.1 mphScattered Clouds
6:15 PM41.9 °F23.4 °F48 %29.91 in10.0 miWest (280°)8.1 mphMostly Cloudy
6:35 PM41.4 °F24.3 °F51 %29.91 in10.0 miNNW (330°)5.8 mphMostly Cloudy
6:55 PM41.0 °F24.6 °F52 %29.91 in10.0 miNNW (340°)3.5 mphScattered Clouds
7:15 PM41.9 °F23.2 °F47 %29.91 in10.0 miCalmClear
7:35 PM40.5 °F23.9 °F52 %29.90 in10.0 miSSE (150°)4.6 mphScattered Clouds
7:55 PM39.6 °F23.9 °F54 %29.90 in10.0 miSE (140°)3.5 mphScattered Clouds
8:15 PM36.7 °F25.5 °F64 %29.91 in10.0 miCalmClear
8:35 PM37.4 °F24.8 °F60 %29.91 in10.0 miCalmScattered Clouds
8:55 PM37.8 °F24.3 °F58 %29.91 in10.0 miCalmMostly Cloudy
9:15 PM36.5 °F25.2 °F64 %29.91 in10.0 miCalmMostly Cloudy
9:35 PM34.9 °F25.3 °F68 %29.91 in10.0 miCalmScattered Clouds
9:55 PM34.7 °F24.8 °F67 %29.91 in10.0 miCalmScattered Clouds
10:15 PM35.6 °F24.6 °F64 %29.90 in10.0 miCalmClear
10:35 PM34.3 °F24.6 °F68 %29.89 in10.0 miCalmClear
10:55 PM32.9 °F24.3 °F71 %29.89 in10.0 miCalmClear
11:15 PM33.1 °F23.9 °F69 %29.88 in10.0 miESE (110°)5.8 mphClear
11:35 PM31.3 °F24.1 °F75 %29.87 in10.0 miCalmClear
11:55 PM32.2 °F24.6 °F74 %29.87 in10.0 miCalmClear
Hourly data recorded from KSBS, located miles away from Steamboat Springs, Colorado







STORIES FROM OUR PARTNERS